Flag for U.S.A. Weather past 2 weeks in Antioch, California, U.S.A.

Now
50 °F

Clear.


Feels Like: 48 °F
Forecast: 50 / 83 °F
Wind: 5 mph from Northwest

Location: Buchanan Field

Current Time: Apr 18, 2015 at 5:38:21 AM

Latest Report: Apr 18, 2015 at 4:53 AM


Visibility: 10 mi

Pressure: 29.98 "Hg

Humidity: 83%

Dew point: 45 °F

Location of AntiochLocation

Historic Weather in Antioch — Graph

°F

Antioch temperature yesterday

Maximum temperature yesterday: 83 °F (at 2:53 PM)
Minimum temperature yesterday: 49 °F (at 5:53 AM)
Average temperature yesterday: 66 °F

Past Weeks' High & Low Weather Summary

 TemperatureHumidityPressure
High83 °F (Apr 17, 2:53 PM)90% (Apr 12, 5:53 AM)30.31 "Hg (Apr 12, 5:53 AM)
Low42 °F (Apr 6, 6:53 AM)11% (Apr 16, 3:53 PM)29.73 "Hg (Apr 7, 4:53 AM)
Average58 °F53%30.00 "Hg
* Reported Apr 3 3:53 AM — Apr 18 3:53 AM, Antioch, Weather by CustomWeather, © 2015

Note: Actual official high and low records may vary slightly from our data, if they occured in-between our weather recording intervals... More about our weather records

Advertising

Antioch weather history for previous 24 hours

 ConditionsComfort  
Time TempWeatherWind HumidityBarometerVisibility
3:53 AM
Sat, Apr 18
50 °FClear.7 mph80%29.97 "Hg10 mi
2:53 AM51 °FClear.No wind80%29.98 "Hg10 mi
1:53 AM51 °FClear.6 mph86%29.98 "Hg9 mi
12:53 AM52 °FClear.6 mph80%29.99 "Hg10 mi
11:53 PM
Fri, Apr 17
55 °FClear.6 mph67%29.99 "Hg10 mi
10:53 PM59 °FClear.5 mph39%29.98 "Hg10 mi
9:53 PM61 °FClear.3 mph39%29.98 "Hg10 mi
8:53 PM65 °FClear.5 mph25%29.97 "Hg10 mi
7:53 PM70 °FSunny.10 mph19%29.95 "Hg10 mi
6:53 PM74 °FSunny.12 mph19%29.94 "Hg10 mi
5:53 PM79 °FSunny.10 mph18%29.95 "Hg10 mi
4:53 PM81 °FSunny.8 mph21%29.96 "Hg10 mi
3:53 PM82 °FSunny.12 mph17%29.97 "Hg10 mi
2:53 PM83 °FSunny.14 mph11%29.98 "Hg10 mi
1:53 PM81 °FSunny.9 mph16%30.00 "Hg10 mi
12:53 PM79 °FSunny.7 mph25%30.02 "Hg10 mi
11:53 AM77 °FSunny.5 mph31%30.04 "Hg10 mi
10:53 AM72 °FSunny.No wind25%30.04 "Hg10 mi
9:53 AM67 °FSunny.No wind35%30.04 "Hg10 mi
8:53 AM61 °FSunny.No wind46%30.04 "Hg10 mi
7:53 AM56 °FSunny.No wind53%30.04 "Hg10 mi
6:53 AM49 °FClear.No wind66%30.02 "Hg10 mi
5:53 AM49 °FClear.No wind64%30.00 "Hg10 mi
Weather by CustomWeather, © 2015

See weather overviewHow to use our weather pages